Location: Bremen
(53.0793°N, 8.8017°E)
Time: 22:26:50
(UTC+01:00)

S-56A Canister/Altair - Pass Details

Date: 02 December 2021
Orbit: 634 x 2499 km, 38.9° (Epoch: 26 January)

Event Time Altitude Azimuth Distance (km) Brightness Sun altitude
Rises 05:25:11 0° 255° (WSW) 3,509 - -24.7°
Reaches altitude 10° 05:30:48 10° 212° (SSW) 2,203 - -23.8°
Maximum altitude 05:31:11 10° 207° (SSW) 2,179 - -23.8°
Drops below altitude 10° 05:31:33 10° 203° (SSW) 2,166 - -23.7°
Exits shadow 05:32:07 10° 196° (SSW) 2,169 9.7 -23.6°
Sets 05:36:23 0° 156° (SSE) 2,924 10.9 -23.0°
